User: anonymous   Login
Location: Unspecified
(0.0000°N, 0.0000°E)
Time: 03:59:25
(UTC+00:00)
Language:

YUBELEINY 2 - Orbit

View from above orbital plane
View from above orbital plane
View from above satellite
View from above satellite

Ground track
Ground track

The orbit data is extracted from the following two-line orbital elements,

1 38735U 12041C   19083.15257682  .00000036  00000-0  18641-3 0  9993
2 38735  82.4724 282.0485 0017901  64.4155 295.8775 12.42578247301804
Epoch (UTC): 24 March 2019 03:39:42
Eccentricity: 0.0017901
inclination: 82.4724°
perigee height: 1481 km
apogee height: 1510 km
right ascension of ascending node: 282.0485°
argument of perigee: 64.4155°
revolutions per day: 12.42578247
mean anomaly at epoch: 295.8775°
orbit number at epoch: 30180

The dashed part of the orbit path shows where the satellite is in the earth's shadow,  

DLR